Location: Cuiabá
(15.6014°S, 56.0979°W)
Time: 21:57:46
(UTC-04:00)

Hubble Space Telescope - Pass Details

Date: 06 December 2022
Orbit: 529 x 532 km, 28.5° (Epoch: 26 January)

Event Time Altitude Azimuth Distance (km) Brightness Sun altitude
Rises 19:47:08 0° 236° (SW) 2,679 5.9 -22.3°
Reaches altitude 10° 19:50:28 10° 208° (SSW) 1,789 4.3 -23.0°
Maximum altitude 19:52:31 13° 178° (S) 1,587 3.5 -23.4°
Drops below altitude 10° 19:54:35 10° 148° (SSE) 1,795 3.4 -23.8°
Enters shadow 19:54:41 10° 147° (SSE) 1,812 3.5 -23.8°
